Regional Weather Roundup
Issued by NWS

Home | Current Version | Previous Version | Graphics & Text | Print | Product List | Glossary On
Versions: 1 2 3 4 5 6 7 8 9 10 11 12 13 14 15 16 17 18 19 20 21 22 23 24 25 26 27 28 29 30 31 32 33 34 35 36 37 38 39 40 41 42 43 44 45 46 47 48 49 50
833
ASUS45 KSLC 260210
RWRUT

UTAH REGIONAL WEATHER ROUNDUP
NATIONAL WEATHER SERVICE SALT LAKE CITY UT
800 PM MDT WED APR 25 2018

UTZ001>011-023>025-260300-

NORTHERN UTAH

CITY           SKY/WX    TMP DP  RH WIND       PRES   REMARKS
BRIGHAM CITY   MOCLDY    65  28  25 CALM      30.09F
HILL AFB       CLEAR     64  22  20 CALM      30.10F
LOGAN          MOCLDY    62  37  39 CALM      30.09S
OGDEN          PTCLDY    64  23  21 SW3       30.08F
SALT LAKE CITY MOCLDY    69  30  23 N3        30.07F
TOOELE VALLEY  MOCLDY    63  36  36 S5        30.09F
WENDOVER       CLEAR     69  24  18 S3        30.08F
HEBER CITY       N/A     59  25  27 N7        30.12S
WEST JORDAN    MOCLDY    62  36  36 NW7       30.11F

$$

UTZ011>015-024>027-260300-

CENTRAL/NORTHEAST UTAH

CITY           SKY/WX    TMP DP  RH WIND       PRES   REMARKS
PROVO AIRPORT  MOCLDY    66  37  34 NW13      30.10S
MOAB/CANYONLAN MOCLDY    67   3   8 CALM      30.05F
DELTA          PTCLDY    68  19  15 CALM      30.09F
PRICE          PTCLDY    67  11  11 NW14G25   30.11F
RICHFIELD      CLEAR     66  23  19 CALM      30.10F
ROOSEVELT      PTCLDY    63  19  19 CALM      30.09S
VERNAL         CLEAR     61  17  18 CALM      30.07F

$$

UTZ013>016-019>022-027-260300-

SOUTHERN UTAH

CITY           SKY/WX    TMP DP  RH WIND       PRES   REMARKS
BRYCE CANYON   CLEAR     59  17  19 NW9       30.24S
CEDAR CITY     MOCLDY    70  25  18 NE5       30.10F
MILFORD        CLEAR     71  29  21 NE7       30.07F
ST GEORGE      MOCLDY    84  23  10 SW9       29.95F
HANKSVILLE     PTCLDY    72  14  11 CALM      30.08S
KANAB          CLEAR     72  23  16 SW6       30.11S
BLANDING         N/A     63   2   9 NW12      30.20S

$$

REGIONAL REPORTS     COLORADO/ARIZONA

CITY           SKY/WX    TMP DP  RH WIND       PRES   REMARKS
CRAIG, CO      PTCLDY    53  25  33 W10       30.10F
GRAND JUNCTION CLEAR     62   9  12 N8        30.06F
RIFLE, CO      CLEAR     62   9  12 W13       30.07S
MONTROSE, CO   CLEAR     60  11  14 NW6       30.12F
CORTEZ, CO     PTCLDY    63  -4   6 SW6       30.13S
COLORADO CITY    N/A     73  21  14 CALM      30.11S
PAGE, AZ       CLEAR     74  19  12 NE6       30.03F
GRAND CANYON   PTCLDY    66  14  13 CALM      30.19F
KINGMAN, AZ    CLEAR     84  22  10 NW9       29.99S
FLAGSTAFF, AZ  CLEAR     64  19  17 NE7       30.21R

$$

REGIONAL REPORTS    NEVADA/IDAHO/WYOMING

CITY           SKY/WX    TMP DP  RH WIND       PRES   REMARKS
LAS VEGAS, NV  MOCLDY    90  21   8 NE9       29.89F
ELY, NY        CLEAR     69  19  15 N10       30.14F
ELKO, NV       CLEAR     69  27  20 W7        30.12F
POCATELLO, ID  PTCLDY    62  34  35 W9        30.09F
BURLEY, ID     PTCLDY    64  22  20 W9        30.08S
FORT BRIDGER,  CLEAR     54  14  20 W16G25    30.19S
EVANSTON, WY   MOCLDY    53  19  26 SW15      30.18F
ROCK SPRINGS,  CLEAR     56   7  14 W18G26    30.09R
KEMMERER, WY   CLEAR     50  18  27 W20       30.15F

$$




USA.gov is the U.S. government's official web portal to all federal, state and local government web resources and services.